Location: Newark
(43.0492°N, 2.7892°E)
Time: 07:27:17
(UTC+00:00)

Envisat - Visible Passes

Search period start: 28 January 2020 00:00
Search period end: 07 February 2020 00:00
Orbit: 764 x 766 km, 98.1° (Epoch: 28 January)

Date Brightness Start Highest point End Pass type
(mag) Time Alt. Az. Time Alt. Az. Time Alt. Az.
28 Jan 4.4 06:02:46 10° NNE 06:07:38 43° E 06:12:26 10° S visible
28 Jan 3.0 17:18:03 10° SSE 17:23:03 62° ENE 17:28:05 10° N visible
28 Jan 6.0 18:59:22 10° SW 19:02:30 16° W 19:05:37 10° NW visible
29 Jan 5.8 05:26:52 10° NE 05:30:35 20° E 05:34:16 10° SE visible
29 Jan 4.7 18:20:47 10° SSW 18:25:24 35° W 18:30:03 10° NNW visible
30 Jan 3.3 06:28:04 10° NNE 06:33:10 76° ESE 06:38:14 10° S visible
30 Jan 3.2 17:43:26 10° S 17:48:29 77° WSW 17:53:36 10° NNW visible
31 Jan 4.9 05:51:38 10° NNE 05:56:16 34° E 06:00:52 10° SSE visible
31 Jan 5.7 18:47:21 10° SW 18:51:05 20° W 18:54:50 10° NW visible
01 Feb 6.1 05:16:07 10° NE 05:19:10 16° E 05:22:13 10° SE visible
01 Feb 4.3 18:09:13 10° S 18:14:02 44° W 18:18:55 10° NNW visible
02 Feb 3.7 06:16:49 10° NNE 06:21:52 60° E 06:26:52 10° S visible
02 Feb 3.0 17:32:08 10° SSE 17:37:12 85° ENE 17:42:19 10° NNW visible
02 Feb 6.4 19:15:14 10° WSW 19:16:53 11° W 19:18:31 10° WNW visible
03 Feb 5.3 05:40:35 10° NE 05:44:54 27° E 05:49:11 10° SSE visible
03 Feb 5.4 18:35:30 10° SSW 18:39:41 26° W 18:43:54 10° NW visible
04 Feb 6.3 05:05:40 10° ENE 05:07:44 12° E 05:09:48 10° ESE visible
04 Feb 3.8 17:57:44 10° S 18:02:43 56° W 18:07:43 10° NNW visible
05 Feb 4.2 06:05:37 10° NNE 06:10:32 47° E 06:15:25 10° S visible
05 Feb 6.2 19:02:37 10° WSW 19:05:26 15° W 19:08:15 10° NW visible
06 Feb 5.7 05:29:37 10° NE 05:33:31 22° E 05:37:23 10° SE visible
06 Feb 5.0 18:23:48 10° SSW 18:28:19 32° W 18:32:52 10° NNW visible
